カタログに戻る

STARLINK-32034

運用中通信VLEO
NORAD 60297·PAYLOAD·🇺🇸 United States

打ち上げ Jul 28, 2024 から Cape Canaveral Space Force Station

Loading…

次のパス (今後24時間)

TLE

最新Source: CelesTrak SupGP

元期: Sep 14, 2026, 20:52 UTC

1 60297C 24132V   26257.86993056  .00053586  00000+0  17233-2 0  2575
2 60297  53.1574 252.2887 0001222  95.7806 304.2012 15.31672364    18

AllMySatでSTARLINK-32034をリアルタイム追跡

Download on the App Store